Regional Weather Roundup
Issued by NWS Mobile, AL

Home | Current Version | Previous Version | Text Only | Print | Product List | Glossary On
Versions: 1 2 3 4 5 6 7 8 9 10 11 12 13 14 15 16 17 18 19 20 21 22 23 24 25 26 27 28 29 30 31 32 33 34 35 36 37 38 39 40 41 42 43 44 45 46 47 48 49 50
000
ASUS44 KMOB 220712
RWRMOB
REGIONAL WEATHER ROUNDUP
NATIONAL WEATHER SERVICE MOBILE AL
100 AM CST THU FEB 22 2018

NOTE: "FAIR" INDICATES FEW OR NO CLOUDS BELOW 12,000 FEET WITH NO
      SIGNIFICANT WEATHER AND/OR OBSTRUCTIONS TO VISIBILITY.

  * THESE STATIONS ARE PART OF THE UNIVERSITY OF SOUTH ALABAMA
    MESONET AND ARE NOT UNDER NWS OR FAA QUALITY CONTROL.

ALZ061>064-220800-
COASTAL ALABAMA

CITY           SKY/WX    TMP DP  RH WIND       PRES   REMARKS
MOBILE REG APT CLOUDY    72  70  93 S14       30.32S
BROOKLEY FIELD CLOUDY    70  69  97 SE8       30.32F
USA CAMPUS*    NOT AVBL
DOG RIVER*     NOT AVBL


CITY           SKY/WX    TMP DP  RH WIND       PRES   REMARKS
GULF SHORES    MOCLDY    69  69 100 MISG      30.33S

$$

ALZ051>060-220800-
INTERIOR SOUTHWEST AND SOUTH CENTRAL ALABAMA

CITY           SKY/WX    TMP DP  RH WIND       PRES   REMARKS
GREENVILLE     FAIR      70  64  81 CALM      30.34S
EVERGREEN      CLOUDY    71  67  87 SE5       30.35S
ATMORE*          N/A    N/A N/A N/A S3        31.15S
ANDALUSIA/OPP  MOCLDY    67  64  90 W3        30.34R
ANDALUSIA*       N/A     66  66 100 CALM      30.34S
FLORALA APT    NOT AVBL
FLORALA*         N/A     63  63 100 CALM      31.12S

$$

FLZ001>006-220800-
WESTERN FLORIDA PANHANDLE

CITY           SKY/WX    TMP DP  RH WIND       PRES   REMARKS
PENSACOLA      CLOUDY    71  69  93 SE6       30.33S
NAS PENSACOLA  NOT AVBL
MILTON         MOCLDY    69  68  96 S7        30.33S
WHTNG S FIELD  CLOUDY    70  69  97 S5        30.33S


CITY           SKY/WX    TMP DP  RH WIND       PRES   REMARKS
JAY*           NOT AVBL
DUKE FIELD     FOG       64  64 100 CALM      30.32F VSB 5/8
CRESTVIEW      FAIR      63  62  97 CALM      30.34S FOG
VALPARAISO     FOG       69  69 100 SE5       30.32S VSB 7/8
DESTIN         FOG       70  66  87 SE6       30.33S VSB 1/2

$$

MSZ076-079-220800-
INTERIOR SOUTHEAST MISSISSIPPI

CITY           SKY/WX    TMP DP  RH WIND       PRES   REMARKS
LEAKESVILLE*     N/A     70  70 100 SE5       30.31S
AGRICOLA*        N/A     70  70 100 S3        30.29S

$$

MARINE OBSERVATIONS

STATION/POSITION TIME  TEMP    WIND        PRES    WAVE
                       AIR SEA DIR/SP/G            HT/PER
                 (UTC) (F)     (DEG/KT/KT) (MB)    (FT/S)
PETIT BOIS ISLND 0648   70     130/ 10/ 13 1026.7F
KATRINA CUT      0630          140/ 12     1026.8S
CEDAR POINT      0630   70     130/  8     1026.8S
E DAUPHIN ISLAND 0500   70     130/ 12/ 14 1026.2R
MIDDLE BAY LIGHT 0630   69     120/ 11     1026.4S
USCG MOBILE BAY  0648   66 67  160/  2/  4 1026.6F
STATE DOCKS      0642   70 62              1026.6F
MEAHER PARK      0630   72     140/  8     1026.8R
WEEKS BAY        0545   72                 1027.0R
FORT MORGAN      0648   70     150/ 13/ 14   N/A
12 S ORANGE BCH  NOT AVBL
PENSACOLA BAY    0642   71 73  140/  2/  4 1027.2R
64 S DAUPHIN ISL 0650      74  130/ 10/ 14 1026.1R   6/ 8
67 S FORT MORGAN 0530   74                   N/A

$$

SELECTED LOCATIONS ACROSS THE REGION

CITY           SKY/WX    TMP DP  RH WIND       PRES   REMARKS
NEW ORLEANS    FAIR      74  73  97 SE7       30.25S
GULFPORT       CLOUDY    72  72 100 SE13      30.28R FOG
PASCAGOULA AP  CLOUDY    73  70  90 SE15      30.29F
PASCAGOULA*      N/A     48  48 100 SE6         N/A
HATTIESBURG    CLOUDY    71  71 100 SE7       30.28S
LAUREL         FAIR      70  70 100 S8        30.28S
MERIDIAN       CLOUDY    73  68  84 S15       30.27S
JACKSON        MOCLDY    71  69  93 S14       30.22R
MONTGOMERY     FAIR      68  66  93 S7        30.34F
TROY           FOG       63  63 100 CALM      30.36R VSB 1/4
ASHFORD*         N/A     66  66 100 CALM      30.34S
DOTHAN         FAIR      64  62  93 S5        30.38S FOG
PANAMA CITY    FAIR      65  64  97 CALM      30.33F

$$




USA.gov is the U.S. government's official web portal to all federal, state and local government web resources and services.